Wind_Speed
27 27 27 27 27 27 27 28 28 29 29 29 29 29 29 29 28 26 26 27 27 24 22 22 23 24 26 27 29 30 32 33 35 36 38 39 41 43 45 47 49 52 54 57 59 62 66 70 75 81 87 92 97 102 105 109 112 114 116 117 117 117 118 117 117 115 113 113 111 109 109 109 108 107 105 104 102 101 99 96 93 90 86 83 83
26 26 27 27 27 27 28 29 30 31 31 30 28 27 27 27 27 26 24 25 26 24 23 22 22 23 25 25 25 26 27 28 29 30 31 31 32 34 36 37 38 39 40 41 43 46 49 53 57 62 68 74 80 86 92 98 103 107 110 113 115 117 118 119 119 117 115 115 114 112 111 110 110 109 108 106 104 103 101 98 94 92 89 84 81
27 27 27 27 28 28 28 30 31 32 33 31 29 27 25 24 24 23 22 22 23 23 23 22 22 23 24 24 24 24 24 24 25 26 25 25 26 28 29 30 31 32 33 34 35 37 39 41 44 48 53 58 63 68 75 81 88 94 99 104 108 111 114 117 119 120 118 117 117 115 114 112 111 111 110 109 107 106 105 102 97 92 90 87 84
27 27 27 27 28 28 28 29 31 33 33 31 29 27 24 20 19 19 18 18 19 21 22 22 22 22 23 24 24 24 24 23 24 24 23 22 23 24 26 28 29 29 30 30 31 33 34 35 36 39 43 47 50 54 58 63 70 77 83 90 96 101 106 111 115 118 120 120 119 118 117 115 113 112 111 111 110 108 107 106 102 95 90 89 87
27 27 27 27 27 27 27 27 29 31 32 31 29 26 22 18 14 14 13 13 15 17 20 21 21 21 21 23 24 24 23 23 23 22 22 22 22 23 25 26 27 27 28 28 29 30 31 32 33 35 38 41 43 45 47 50 54 60 67 73 80 87 93 100 106 111 116 118 120 120 119 118 116 114 112 112 112 111 109 108 106 101 95 92 90
27 26 26 27 27 26 26 26 27 29 31 31 29 26 23 18 13 9 8 8 10 13 16 19 20 20 19 20 22 23 23 23 22 22 22 22 22 23 24 25 25 26 27 27 28 29 30 32 34 35 37 38 40 41 41 43 45 49 54 59 65 71 78 85 93 100 107 112 116 118 119 120 119 117 114 113 113 113 112 110 108 106 102 98 95
26 25 25 26 26 26 26 26 26 28 29 30 29 27 23 18 13 9 5 3 6 8 11 15 18 18 18 18 19 20 21 22 22 22 22 21 21 22 24 25 25 26 25 25 26 27 29 32 34 35 36 37 39 40 40 41 41 43 45 49 53 59 65 72 79 86 94 101 107 112 116 118 119 118 117 115 115 114 114 112 110 108 105 102 99
24 24 25 25 26 26 26 26 26 27 28 28 28 27 24 20 15 10 6 3 2 4 7 11 14 16 17 16 16 17 18 19 21 22 22 21 21 23 25 25 25 24 23 23 24 26 28 30 31 32 33 35 38 41 42 42 42 41 42 43 46 50 56 61 67 74 81 88 94 101 108 113 116 117 118 117 116 115 114 113 112 109 107 105 101
25 25 25 25 26 27 26 26 27 27 27 26 26 26 25 22 19 14 10 6 3 2 4 8 11 13 14 14 14 15 16 17 18 20 21 22 23 24 25 25 23 22 22 22 24 26 27 28 28 29 31 33 37 41 43 43 43 42 42 42 43 45 47 51 57 63 70 76 81 87 96 105 110 114 116 117 117 116 115 114 113 111 109 107 105
28 28 27 27 27 27 26 26 26 26 26 25 24 24 24 23 21 18 14 10 6 3 2 5 8 10 11 12 13 14 15 15 16 17 19 21 23 24 24 24 23 22 22 23 25 26 26 27 27 28 30 33 37 40 42 43 44 43 43 43 43 43 43 44 48 54 59 65 70 75 83 92 100 107 111 114 115 116 116 116 114 112 110 108 107
30 30 29 29 28 28 27 27 27 27 26 25 24 23 23 22 20 19 17 14 10 7 3 3 6 8 10 11 12 13 13 14 14 16 18 20 22 23 23 23 23 23 23 24 25 26 27 27 28 28 30 33 36 38 39 41 43 43 43 43 43 43 42 42 44 47 51 55 60 65 72 79 87 96 103 109 112 114 115 116 114 113 111 109 108
31 30 30 29 29 28 28 28 27 27 27 27 25 24 23 21 19 18 16 14 12 9 7 5 5 6 8 9 10 11 12 13 14 15 17 19 20 21 22 23 24 24 24 24 25 27 28 29 29 30 31 33 35 36 37 39 40 41 42 43 44 43 42 42 42 43 45 47 51 56 62 69 76 83 92 100 106 110 113 114 113 111 109 108 107
30 30 30 29 28 28 28 27 27 27 27 27 26 25 24 22 21 19 17 15 13 11 9 7 6 7 7 8 10 11 12 13 14 15 16 18 19 21 22 23 24 24 25 26 26 28 29 30 30 31 32 34 35 36 37 38 39 40 41 43 43 43 42 41 41 41 41 42 44 47 52 58 65 72 80 89 96 103 108 111 113 111 108 104 102
30 30 29 29 28 28 27 27 26 26 26 26 25 25 24 23 23 21 19 17 14 12 11 9 8 8 8 9 9 10 11 12 13 15 16 17 19 20 22 23 24 25 26 27 28 28 29 30 30 31 32 34 35 36 36 36 37 38 39 40 40 40 41 40 40 39 39 38 38 39 42 48 55 62 69 77 86 94 100 106 110 111 109 104 99
30 30 29 29 28 28 27 26 26 26 26 25 25 24 23 23 22 21 20 18 17 15 14 12 10 10 9 10 10 11 12 13 14 15 16 18 19 20 22 23 25 26 27 28 29 29 29 29 30 31 32 34 35 35 35 35 35 36 37 37 37 37 38 38 38 37 36 35 35 35 37 40 45 52 59 68 77 85 92 98 104 109 110 108 104
30 30 29 29 28 27 27 26 26 25 25 25 24 24 23 22 21 20 19 18 18 17 16 15 13 12 11 10 10 11 12 13 14 15 16 18 19 21 22 23 25 26 27 28 28 28 28 29 30 31 32 33 34 34 33 34 34 35 35 34 34 35 35 35 35 34 33 33 33 33 34 36 39 43 50 58 66 75 83 90 97 103 108 111 110
28 29 29 28 27 27 26 26 26 26 25 25 24 24 23 23 22 21 20 19 18 18 17 16 15 13 12 11 10 9 10 11 12 14 15 17 19 20 22 23 24 25 26 26 26 26 27 28 29 30 30 31 32 32 33 33 34 34 33 32 32 32 31 32 33 33 32 31 31 32 33 34 35 38 42 48 56 64 73 81 88 96 102 107 111
26 27 27 27 26 26 26 25 26 26 26 25 24 24 23 23 23 22 22 21 21 20 19 18 17 15 13 11 10 10 9 8 8 9 11 14 16 18 20 21 22 23 24 24 24 24 25 27 28 28 28 29 30 32 33 33 34 33 32 31 30 29 29 31 32 32 31 31 31 32 32 33 34 35 37 41 46 54 62 70 78 86 94 100 106
24 25 25 25 24 23 23 23 23 24 24 24 24 24 23 23 23 23 23 23 22 22 21 20 20 18 15 12 10 8 8 8 8 7 6 7 10 13 15 17 19 20 21 23 24 25 25 26 26 26 27 28 30 32 33 33 33 32 31 30 30 28 28 30 32 31 31 31 31 32 33 34 34 36 37 39 42 45 51 59 68 76 83 90 98
23 23 23 22 21 20 20 20 20 21 21 21 22 22 23 23 23 24 24 24 24 23 22 21 21 20 18 15 11 8 7 6 7 7 7 7 6 6 8 10 12 14 15 17 20 22 24 25 25 25 26 28 29 31 33 33 32 31 31 31 29 27 28 32 33 33 32 32 32 33 34 34 35 36 38 39 40 43 46 51 58 65 73 80 88
23 22 22 22 21 20 19 18 18 19 19 19 20 20 21 22 22 23 24 24 25 24 23 22 21 20 18 16 12 10 8 7 6 6 7 7 7 6 6 5 6 6 7 9 11 14 17 19 21 23 24 25 27 29 31 32 32 32 32 31 29 28 31 34 35 34 34 33 33 33 34 34 34 34 35 36 38 40 44 48 51 56 62 70 77
22 22 22 21 21 21 20 20 19 19 19 19 19 19 19 20 21 22 23 23 24 24 24 23 21 18 16 15 13 10 8 7 7 7 6 6 6 6 6 6 6 6 6 6 7 7 9 11 14 17 19 22 24 26 28 30 31 31 32 31 31 31 34 37 37 36 36 34 33 33 33 32 32 31 31 32 33 36 39 43 47 51 55 60 66
23 22 22 21 20 20 20 20 19 19 19 19 20 20 20 20 20 21 23 23 23 23 23 23 22 19 16 13 12 11 9 8 8 7 7 7 7 7 7 8 8 9 10 10 9 8 8 9 9 11 13 16 19 21 24 27 29 30 31 32 32 34 36 38 39 38 38 36 35 34 33 32 31 31 29 29 30 33 35 38 42 46 51 54 58
24 23 22 22 21 20 19 19 19 18 18 18 18 19 20 21 21 22 23 23 23 24 23 23 22 20 17 14 11 10 9 9 9 9 9 9 9 9 10 10 11 11 12 12 12 12 12 11 11 11 11 12 14 16 18 21 24 26 28 30 32 35 38 39 39 39 39 38 37 35 34 33 33 32 30 29 29 30 32 34 36 40 44 49 53
26 25 24 24 23 22 21 20 20 19 18 18 18 18 19 21 22 23 24 24 24 25 24 23 22 21 19 16 13 10 9 9 10 10 10 9 10 10 10 10 11 11 12 12 13 13 14 14 13 13 13 14 14 14 15 16 18 20 23 26 30 34 37 38 38 38 39 38 37 35 34 34 34 34 32 31 30 30 31 32 33 35 37 41 46
26 26 26 25 25 25 23 22 21 21 20 19 19 19 19 20 22 23 24 25 26 27 26 25 24 22 20 18 15 12 10 9 9 10 10 10 10 10 9 9 10 10 11 12 12 13 13 14 14 14 14 15 16 16 17 17 17 18 20 23 26 30 33 35 36 37 38 37 35 34 34 35 36 35 35 34 33 32 31 30 31 32 33 35 39
25 25 25 26 26 26 26 25 24 23 22 22 21 21 21 21 22 24 25 26 27 28 28 27 25 23 20 18 16 13 11 10 9 9 10 10 10 9 9 9 9 10 10 10 11 12 13 14 15 15 14 14 15 16 18 19 19 19 20 21 24 26 29 30 32 34 35 34 33 33 34 35 36 36 36 36 35 34 33 31 31 31 32 32 35
26 25 25 25 25 25 25 26 26 25 25 24 24 24 23 23 23 24 26 27 28 28 28 28 27 24 21 18 16 14 12 11 10 10 10 10 10 10 10 10 11 11 11 11 11 12 13 14 15 15 14 14 13 15 17 19 20 20 21 22 23 25 26 27 29 31 32 33 33 34 34 34 35 36 36 36 35 35 35 34 33 32 32 32 33
28 26 26 25 25 24 24 24 25 26 26 26 25 25 25 25 25 25 25 26 26 26 27 28 28 25 20 17 16 15 13 12 11 11 11 11 10 10 10 11 12 12 12 12 12 12 12 13 15 15 15 15 14 14 15 17 19 20 22 22 23 24 25 26 26 28 30 31 31 32 32 34 35 36 36 37 37 37 36 36 36 34 34 34 34
29 28 27 26 26 25 25 24 24 25 25 26 26 26 25 25 25 26 26 26 26 25 26 28 27 23 18 15 14 14 14 13 12 12 12 12 11 10 10 11 11 11 11 11 12 12 11 10 11 13 14 16 16 16 16 15 16 18 20 21 21 22 24 24 24 24 26 27 27 28 30 31 32 33 34 35 37 38 38 38 38 37 36 35 35
30 29 28 28 27 26 25 25 24 24 24 25 26 27 27 26 24 24 25 26 26 26 26 26 24 20 15 13 13 13 13 13 13 12 12 12 11 10 10 10 10 10 10 10 10 9 8 6 6 8 11 14 16 17 17 16 15 14 15 17 18 20 22 23 23 24 24 24 24 25 26 25 26 27 28 30 33 36 39 40 40 40 39 38 36
30 29 28 27 27 27 26 25 25 24 24 24 24 25 27 27 27 26 25 24 24 24 24 23 21 18 14 12 13 13 12 12 13 12 12 11 10 8 9 10 10 9 9 9 9 7 6 6 6 6 8 11 13 14 15 16 15 14 13 13 14 16 19 21 23 24 24 24 24 24 24 24 24 25 25 27 29 31 34 38 41 41 41 40 39
33 30 29 27 27 26 26 26 25 25 25 25 24 24 25 25 26 27 27 26 25 23 22 21 19 16 14 13 13 13 13 13 13 12 11 10 8 7 8 9 9 9 8 8 7 6 6 5 5 4 4 4 5 7 9 11 13 14 14 13 12 13 15 18 21 23 23 23 24 25 25 25 26 27 27 27 27 27 30 34 38 40 41 41 41
36 32 30 28 27 26 26 25 25 25 25 25 25 25 24 24 24 24 26 27 26 25 23 21 18 16 15 15 15 14 14 14 13 12 11 9 6 6 7 8 9 9 8 8 7 6 5 3 2 2 2 2 1 1 3 5 7 9 12 13 14 14 16 17 19 21 22 23 25 26 26 27 27 27 27 26 25 24 26 29 33 36 39 41 41
43 38 33 29 28 27 26 26 25 25 24 24 25 25 24 23 23 22 22 23 24 24 24 21 18 17 17 18 16 14 15 15 14 12 10 8 5 5 6 7 8 8 8 9 7 6 5 3 1 1 2 2 2 2 2 2 3 4 6 8 11 13 15 18 20 22 24 25 26 27 27 28 28 28 27 26 25 25 25 26 28 31 35 38 40
48 44 39 35 31 28 27 26 26 25 25 24 24 25 25 24 23 21 20 20 20 21 21 19 17 16 17 17 16 13 14 16 15 13 11 8 6 5 6 6 7 7 8 8 8 7 6 5 4 3 3 4 4 4 4 3 4 4 4 5 7 8 11 13 16 19 22 24 27 29 29 29 29 29 29 28 27 26 25 25 26 27 29 32 35
50 47 44 39 35 31 28 27 26 26 25 24 24 24 25 25 23 21 19 19 19 19 18 17 16 16 16 15 14 13 14 16 16 13 11 9 7 6 6 6 7 7 8 8 8 8 7 6 6 5 5 5 4 4 4 4 4 4 5 5 5 6 7 8 10 12 13 16 20 24 27 28 29 29 30 30 28 27 27 27 26 26 27 28 30
53 51 47 43 39 35 31 29 27 26 25 24 24 24 24 25 24 21 19 18 19 18 16 15 15 16 16 15 13 12 12 15 16 13 11 9 9 8 8 8 8 8 9 9 9 9 9 7 7 6 6 6 5 5 5 4 4 4 4 4 5 6 7 8 9 9 9 9 10 13 18 23 25 27 27 28 28 28 28 27 27 27 26 26 27
56 54 51 47 43 38 34 31 28 26 25 24 24 23 24 24 24 22 19 18 18 17 15 13 14 15 16 15 13 11 11 13 15 13 11 10 11 11 10 10 9 9 10 10 10 11 10 9 8 7 7 7 6 6 5 5 5 4 4 4 5 5 6 7 8 8 8 8 7 6 8 12 17 21 23 24 25 26 27 27 27 26 26 26 27
56 55 54 51 47 43 38 33 30 27 26 24 23 23 23 23 24 23 20 18 17 16 14 12 13 14 14 14 13 12 10 12 13 13 13 12 13 13 13 12 12 11 11 11 11 12 12 11 9 8 7 7 7 7 6 6 6 5 5 5 5 5 5 5 6 7 7 8 8 7 6 6 7 10 14 17 19 21 23 24 25 26 26 27 28
57 56 55 53 51 47 42 37 33 29 26 25 23 23 22 22 23 22 20 18 17 16 14 12 12 13 14 14 13 13 12 12 13 14 15 15 15 15 15 15 14 14 13 13 13 13 12 11 9 8 7 7 7 8 7 7 6 6 6 6 6 5 5 5 5 5 6 7 7 7 7 6 6 6 8 10 11 13 15 16 18 19 20 21 22
56 56 55 54 53 50 46 42 37 32 28 26 24 23 22 21 22 22 20 18 17 15 13 11 11 12 13 13 13 14 13 13 14 15 16 17 17 17 17 17 17 16 16 15 14 13 12 10 8 7 7 7 8 8 8 7 7 7 6 6 6 6 6 6 5 5 5 5 6 6 6 6 6 7 7 8 9 10 11 12 13 14 15 15 15
56 56 55 54 53 52 49 45 41 35 31 27 25 23 22 21 21 21 20 19 17 15 13 11 11 11 12 13 13 13 14 15 15 16 17 18 19 19 19 19 19 19 18 17 15 14 12 10 8 6 7 7 8 8 8 8 7 6 6 6 7 7 7 7 6 6 6 5 5 5 5 5 5 5 6 6 7 8 9 10 11 12 13 13 14
55 55 55 54 53 52 51 48 44 40 35 30 26 23 22 21 20 20 20 19 17 15 13 12 11 11 12 12 13 13 14 15 15 16 17 18 19 20 20 20 20 20 19 17 15 14 12 10 8 7 7 7 8 8 8 8 8 7 6 6 6 6 6 7 7 7 7 7 6 6 5 5 5 5 5 5 5 5 6 6 7 8 8 9 10
55 55 54 54 53 52 51 50 47 43 39 34 29 25 22 21 20 19 19 18 17 15 14 13 12 12 12 12 13 13 14 15 16 16 16 16 17 17 18 18 18 18 17 16 14 13 11 10 8 7 8 8 8 8 8 8 8 8 8 7 7 6 6 6 7 7 7 8 7 7 7 6 6 6 5 5 5 6 6 6 6 7 7 8 8
54 54 54 54 53 52 52 50 49 46 42 38 33 29 25 22 20 19 19 18 17 15 15 14 13 12 12 12 13 13 14 15 16 16 17 16 16 16 15 15 14 14 13 13 12 11 10 9 9 9 9 9 9 9 9 8 8 8 8 8 8 7 7 7 7 7 7 7 7 7 7 7 7 7 7 7 7 7 8 8 8 8 9 9 9
53 53 53 53 53 52 51 51 50 48 45 41 37 32 28 24 22 20 19 18 17 16 16 16 15 14 13 13 14 14 14 14 15 16 17 17 17 17 16 15 13 12 12 12 11 11 10 10 10 10 10 10 10 10 9 9 9 9 9 10 9 9 9 8 8 8 7 7 7 8 8 8 8 8 9 9 9 9 9 9 10 10 10 11 11
53 53 53 53 52 52 51 51 50 49 47 43 39 35 31 27 24 22 20 19 18 17 17 17 17 16 15 15 15 15 14 14 15 16 16 17 18 18 18 17 16 14 14 13 13 12 12 12 12 12 12 12 12 12 11 11 10 11 11 11 11 10 10 10 10 10 10 10 10 10 10 10 10 10 10 10 10 10 10 11 11 11 11 12 12
52 52 52 52 52 51 51 51 50 49 48 45 42 38 34 30 25 23 21 20 20 19 18 18 18 18 18 17 16 16 16 15 15 15 16 17 17 18 19 19 19 18 17 16 15 14 14 14 14 14 14 14 14 14 13 13 13 13 13 12 12 12 12 12 11 11 11 11 11 11 11 11 11 11 11 11 11 11 12 12 12 12 12 12 12
51 51 51 51 51 50 50 50 49 49 48 46 44 41 38 34 29 25 22 21 21 20 20 20 20 20 20 20 19 18 18 18 17 17 17 17 17 18 19 20 20 20 20 19 18 18 17 17 17 16 16 16 16 15 14 14 14 14 14 14 13 13 13 13 13 13 12 13 13 13 13 13 13 13 13 13 13 12 12 12 12 12 12 12 13
51 50 50 50 50 50 49 49 49 48 47 47 46 43 40 37 33 29 25 23 21 21 22 22 22 23 23 23 22 21 20 20 20 19 19 18 18 18 19 20 20 21 21 21 21 20 20 19 19 18 18 17 17 16 16 15 15 15 15 15 15 15 15 15 15 15 15 15 15 14 14 14 14 14 14 14 13 13 13 13 13 13 13 13 13
Wind_Direction
336 336 335 334 332 331 330 328 327 325 322 317 310 303 296 290 285 279 272 268 266 262 255 250 247 245 243 241 239 237 237 237 237 237 236 236 236 236 237 237 237 238 239 239 239 239 239 239 239 239 240 240 240 240 240 240 240 240 241 241 240 240 241 241 241 240 239 239 239 238 237 237 237 238 238 238 239 239 239 239 239 238 238 240 242
342 341 340 340 339 337 337 336 335 334 331 326 319 311 302 293 287 280 272 265 263 261 256 249 244 243 244 244 241 239 238 235 234 233 232 231 231 230 230 231 231 231 231 232 232 232 233 234 235 236 237 238 239 239 240 240 240 240 240 240 239 239 239 239 240 239 238 238 239 238 237 236 236 236 237 237 237 238 238 238 237 237 237 237 238
347 346 344 345 344 344 343 342 342 341 339 335 328 320 310 299 289 282 273 263 259 257 255 251 244 240 243 245 242 240 238 236 234 233 231 228 226 225 223 223 222 221 220 221 223 224 226 228 230 232 234 235 236 237 238 239 240 240 240 241 240 239 238 238 238 238 237 237 237 237 237 236 235 235 236 236 236 237 237 237 236 235 235 235 234
351 350 350 350 349 348 348 347 347 346 345 342 337 330 321 308 294 284 274 261 254 251 250 250 248 241 239 242 242 240 238 236 235 233 231 227 224 221 220 219 218 217 217 218 221 224 225 226 229 232 234 235 235 236 237 238 238 239 239 240 241 240 239 239 238 237 236 235 235 236 236 236 235 233 233 234 235 235 236 236 236 234 233 233 232
354 355 356 355 353 352 353 352 351 351 351 351 348 345 340 330 311 293 277 257 247 245 243 246 249 246 241 240 241 242 240 239 237 234 231 227 224 224 224 224 222 221 222 223 224 226 227 228 231 234 237 238 238 238 238 238 238 238 238 239 240 240 240 240 239 238 237 235 234 233 234 234 234 233 232 232 233 234 235 235 236 234 233 232 231
357 359 360 359 357 356 358 358 357 356 359 360 359 358 356 352 342 321 292 255 241 241 240 241 246 249 246 242 242 243 243 242 240 238 235 231 228 228 229 229 226 224 224 225 226 227 228 230 233 235 238 239 240 241 241 241 241 241 240 239 239 239 239 239 239 238 238 236 235 233 232 232 232 232 231 230 230 231 233 233 234 234 232 232 231
360 1 3 2 1 1 2 4 3 1 3 6 7 8 7 6 5 1 347 277 245 242 238 237 240 245 248 246 244 243 243 243 242 241 238 235 232 232 234 233 230 228 227 227 229 230 231 233 235 236 238 239 240 241 241 242 242 243 243 242 240 240 239 239 238 238 238 237 236 234 232 231 230 230 230 229 228 228 230 231 232 233 232 232 231
4 5 6 6 6 6 6 8 8 7 7 9 12 14 15 16 17 20 21 6 286 252 237 232 235 241 247 248 247 244 242 241 241 240 239 235 231 232 236 237 236 235 233 233 235 236 237 238 239 240 240 240 240 241 242 243 243 244 244 244 243 242 241 239 239 238 238 238 237 235 234 232 230 229 229 228 227 227 227 229 230 231 232 231 230
13 12 12 11 11 10 10 11 13 12 10 11 13 17 19 21 23 26 27 24 3 287 244 233 235 241 246 249 249 247 245 243 240 237 236 233 232 233 237 240 241 241 240 240 240 242 243 244 244 244 243 241 240 240 242 243 244 245 245 245 246 246 245 242 241 239 238 238 237 236 235 233 231 230 229 228 227 226 226 227 227 228 229 230 229
24 23 21 20 18 16 16 16 18 18 16 14 14 16 19 21 23 25 26 25 22 2 266 240 240 245 249 251 253 253 253 250 245 239 234 232 232 234 238 241 244 244 243 243 245 247 248 248 247 246 244 243 242 241 242 243 245 246 246 246 247 248 248 246 243 242 240 238 238 237 235 234 232 231 230 229 227 226 225 225 225 226 227 227 228
29 29 29 28 27 25 24 25 26 25 24 21 19 19 20 20 21 22 23 23 21 15 348 275 256 256 258 259 260 260 260 256 251 244 237 234 234 236 239 242 244 244 244 245 247 249 251 250 248 246 245 244 244 243 242 243 244 245 246 246 247 248 248 246 245 245 243 240 239 237 236 234 232 231 230 229 229 227 225 224 224 224 225 226 226
28 29 29 29 28 28 28 29 30 31 30 27 25 25 24 22 20 20 20 19 17 13 2 332 294 276 270 268 265 263 260 257 253 248 243 239 238 238 240 242 243 243 244 244 246 248 250 250 248 246 244 244 245 244 243 242 243 244 245 245 247 248 247 246 246 245 245 243 241 239 237 235 233 231 230 229 229 228 227 225 224 223 224 225 225
24 25 25 25 25 26 26 27 29 31 31 30 28 28 28 27 25 22 19 16 11 6 358 345 325 305 289 280 273 267 263 259 256 253 249 245 243 242 243 243 244 245 245 246 247 249 250 251 249 246 244 244 245 244 243 242 241 242 243 245 247 248 248 247 246 245 245 244 243 241 240 238 235 232 230 229 228 228 228 227 225 223 222 223 224
21 22 22 23 24 25 26 27 29 30 31 30 29 28 28 28 27 25 22 19 15 8 358 347 333 318 304 293 283 276 269 264 260 257 254 251 249 248 247 247 246 247 247 249 250 251 251 251 249 247 245 245 245 245 243 241 241 241 243 245 246 247 247 246 246 244 243 243 243 242 241 240 237 234 231 229 228 228 228 228 227 225 223 221 222
19 20 21 22 23 25 26 27 28 29 30 30 29 28 27 27 26 23 21 20 20 17 10 1 348 332 317 302 291 282 274 268 262 259 256 253 252 251 250 249 249 249 250 251 252 252 251 249 248 246 245 245 244 244 242 241 240 240 242 243 245 245 244 244 243 243 241 240 239 239 239 240 238 235 232 231 229 228 227 227 228 227 225 222 220
16 18 20 21 22 23 25 26 26 26 27 28 28 27 26 26 26 24 21 19 19 17 13 8 1 352 341 326 308 293 282 274 267 262 258 255 253 252 252 251 251 251 251 252 253 252 249 246 245 244 244 243 243 242 241 239 239 239 240 241 242 242 242 241 241 241 239 238 237 236 236 237 237 236 234 232 231 229 228 227 227 228 227 225 222
11 14 16 18 20 22 23 24 24 23 24 25 26 26 25 24 24 24 23 22 22 20 14 7 2 356 351 347 341 327 308 291 277 268 262 259 257 255 254 253 253 252 251 251 250 250 248 246 245 245 244 242 241 240 238 238 238 239 239 240 241 241 239 238 239 240 239 238 237 237 236 236 236 235 234 233 232 231 229 228 228 228 228 227 225
5 7 10 13 15 18 21 22 22 22 21 21 22 23 23 22 21 20 19 19 20 21 18 11 3 357 351 346 348 352 350 336 314 289 272 263 259 257 256 256 255 254 253 251 249 248 247 247 247 247 245 242 239 237 236 237 238 239 240 240 240 238 236 237 239 240 240 239 238 237 236 235 234 234 233 233 232 232 231 230 229 229 230 229 228
0 1 3 6 9 12 15 18 20 21 20 20 20 20 21 21 20 18 16 13 13 15 15 12 6 0 357 350 342 344 355 360 356 343 319 289 270 262 257 256 256 255 254 253 251 249 247 247 248 248 246 242 238 236 236 237 238 239 239 239 238 236 235 237 239 239 239 238 237 236 236 235 235 234 233 233 233 232 232 232 231 231 230 230 230
0 358 357 358 1 5 9 12 15 17 19 20 20 19 20 21 20 19 16 14 12 10 9 8 6 3 1 0 354 342 340 347 353 353 349 340 323 298 277 267 262 259 257 255 253 251 249 247 247 247 247 244 241 238 237 237 238 238 238 238 236 232 232 236 238 238 238 237 236 236 236 236 237 236 236 235 233 233 233 233 232 232 232 231 231
359 357 355 353 353 354 358 2 6 11 15 17 18 19 19 19 19 19 16 15 14 11 7 6 6 4 1 1 0 351 339 334 338 345 346 345 344 340 330 317 305 291 279 270 263 258 253 250 247 247 247 246 244 242 240 240 239 238 238 237 234 230 231 235 237 238 237 236 235 236 237 238 240 240 240 239 237 236 235 234 234 233 233 233 232
351 352 351 350 349 348 349 351 356 2 6 9 10 12 14 15 16 16 14 13 12 11 8 6 6 6 5 4 3 0 353 346 344 346 347 344 340 337 333 326 321 318 312 301 290 278 267 259 253 248 247 246 245 243 242 241 240 239 239 237 233 230 232 236 237 238 238 238 237 237 238 240 242 243 243 242 241 239 238 237 235 234 233 232 232
341 342 343 344 343 342 343 344 347 352 356 358 359 360 1 5 7 8 9 9 8 7 6 5 4 5 7 9 9 8 5 358 351 346 339 331 323 315 308 302 298 296 295 293 289 284 275 268 262 257 251 248 245 243 241 240 240 238 238 237 234 232 233 236 236 238 239 239 239 239 240 241 243 244 244 243 242 241 241 239 238 237 235 233 232
334 332 333 334 335 336 336 336 337 339 343 345 347 348 349 352 355 357 358 359 0 1 1 1 360 359 0 2 2 1 356 348 340 335 327 318 311 305 299 295 291 287 284 282 280 277 273 269 264 259 256 252 249 246 243 242 240 238 236 235 235 234 235 237 237 238 239 240 240 240 241 242 243 244 244 243 242 241 241 241 240 239 238 235 232
333 330 326 324 325 327 328 329 329 330 330 331 333 335 337 339 342 344 345 345 346 350 354 355 353 352 352 352 349 346 347 346 340 335 332 327 322 315 308 302 297 292 287 282 276 271 268 267 265 262 258 256 253 250 247 245 243 240 237 235 234 235 236 237 237 238 239 240 240 240 240 241 242 243 243 244 243 242 241 241 241 241 240 237 234
334 331 327 322 320 318 319 320 321 322 322 322 323 324 324 326 329 332 334 334 335 338 343 346 346 343 342 343 342 337 335 339 340 337 335 335 333 329 323 317 310 304 299 292 284 274 266 262 262 262 262 261 258 254 251 247 246 245 243 239 236 236 237 237 237 238 239 239 239 238 238 239 240 241 242 243 243 244 243 242 241 241 241 239 235
336 332 329 326 322 319 316 314 313 313 313 313 315 316 317 318 319 321 323 325 328 329 332 336 337 335 331 332 335 333 325 321 323 325 328 332 334 333 330 326 321 313 307 300 293 284 274 265 259 257 260 262 262 258 254 251 249 249 248 246 242 238 237 235 234 236 237 237 236 235 234 235 237 238 239 240 242 243 244 244 243 241 240 240 237
339 337 334 330 326 323 319 315 312 309 307 306 306 307 309 310 311 312 314 316 319 321 322 325 328 328 324 321 324 327 321 313 309 310 316 323 328 331 331 329 324 319 313 307 300 290 280 270 261 255 254 258 260 260 258 254 252 251 250 248 245 242 238 234 231 231 232 233 232 232 232 233 235 236 237 239 240 241 242 243 243 242 240 239 238
338 338 337 335 332 328 325 321 317 314 311 308 305 303 302 302 303 304 307 309 311 312 313 315 319 322 320 314 314 317 316 311 306 306 310 316 322 327 329 326 323 319 315 312 309 302 290 275 262 255 253 254 255 257 258 257 255 254 252 249 245 242 239 236 232 230 230 230 232 232 233 234 235 236 236 237 237 238 240 241 242 242 241 239 238
334 335 336 336 335 334 331 328 324 321 318 315 313 310 307 304 302 301 302 304 305 306 306 309 315 319 316 308 306 309 309 306 306 307 310 314 319 325 327 325 323 321 318 317 317 315 307 288 267 256 254 255 254 254 254 255 257 257 254 249 244 240 236 234 232 230 229 229 230 232 234 236 238 239 239 239 238 237 236 237 238 239 239 239 238
330 331 332 334 335 335 334 332 329 326 323 319 317 315 314 313 311 308 306 305 305 306 307 310 315 318 314 305 302 303 302 299 298 302 307 312 317 325 328 327 327 325 323 326 328 326 323 315 290 266 260 260 259 256 254 254 255 257 256 250 244 237 231 227 226 226 227 229 231 234 238 241 243 244 245 244 243 240 237 236 236 236 237 237 237
331 327 327 329 332 333 334 335 333 331 327 323 320 317 316 316 316 315 314 312 311 311 313 316 318 317 313 306 300 296 292 289 288 292 300 308 315 324 327 328 330 329 327 331 337 335 328 326 319 298 280 272 268 263 259 257 256 255 254 250 243 234 226 222 221 224 228 230 234 239 242 244 244 246 246 246 246 245 241 238 236 235 235 235 235
341 330 324 323 325 328 330 333 335 334 332 328 324 320 317 315 315 315 315 316 317 317 316 317 317 313 309 308 301 290 283 279 277 282 292 302 312 322 327 328 330 329 326 328 337 341 337 333 337 334 316 292 276 266 261 258 255 251 249 246 240 230 224 221 222 226 230 233 237 240 243 244 245 246 247 247 246 246 244 241 239 237 235 234 234
353 343 331 323 319 320 324 327 330 333 334 333 330 325 320 315 313 312 312 314 317 318 319 318 316 312 310 309 302 287 275 270 268 272 283 294 304 317 326 329 331 332 331 328 330 338 343 347 1 6 1 3 351 268 250 248 245 242 240 240 237 232 228 227 227 229 232 235 238 241 243 244 244 245 246 247 246 245 245 243 240 238 236 235 234
0 354 346 334 324 318 317 319 322 326 330 333 334 331 326 319 313 310 309 309 310 312 315 315 313 312 312 310 302 284 266 260 258 261 271 281 287 302 321 330 335 342 347 343 336 333 332 327 307 277 293 307 315 308 287 257 237 227 223 223 224 226 228 231 232 234 235 235 237 239 241 242 242 243 243 244 244 245 246 245 242 238 236 235 234
2 359 354 347 337 326 318 315 315 318 322 326 331 333 331 326 317 310 307 306 304 306 309 310 308 310 312 311 303 283 260 250 249 252 260 265 269 284 309 325 333 342 355 358 355 349 339 322 300 278 273 278 280 285 287 279 264 251 235 222 213 212 216 222 227 231 235 237 237 238 239 239 239 239 239 240 241 241 242 244 243 241 238 236 234
3 1 358 353 346 338 328 319 314 313 314 318 323 328 331 330 324 316 309 305 303 304 307 308 307 310 313 312 305 285 258 244 241 244 251 256 259 271 291 307 319 331 345 356 0 1 355 338 314 296 288 286 282 279 277 273 265 259 254 248 239 231 225 223 222 224 229 235 239 240 240 239 238 238 237 238 238 238 238 240 242 241 239 236 234
5 4 2 358 353 346 338 329 321 315 312 313 316 321 326 330 328 322 313 307 304 304 306 307 308 312 317 319 313 294 265 246 239 239 245 253 257 264 277 290 302 316 328 337 344 350 353 349 332 313 301 295 292 286 280 274 266 257 251 247 248 249 247 244 239 234 231 233 237 240 241 240 239 238 237 237 237 237 237 238 240 240 239 238 237
5 5 4 2 359 353 346 338 330 323 318 315 315 317 322 328 330 326 318 310 305 304 305 306 308 312 318 322 319 305 276 251 241 239 244 253 258 263 271 280 290 300 310 319 327 333 338 340 337 324 307 298 295 291 288 282 274 264 253 245 243 244 246 245 243 242 239 238 237 234 234 235 236 236 236 236 236 236 237 237 238 239 239 240 240
4 4 4 4 2 359 354 347 339 331 325 320 317 317 320 326 330 329 322 314 309 306 304 304 308 313 317 319 318 309 284 257 245 243 247 252 258 263 268 274 280 288 295 302 310 318 323 327 329 322 307 295 292 291 289 287 281 269 256 248 242 240 239 237 236 238 239 240 239 235 226 217 215 218 223 227 230 232 234 235 237 239 240 242 243
4 4 4 4 3 1 358 354 348 340 332 326 322 319 319 322 328 330 324 316 311 307 302 301 308 315 316 315 314 309 291 267 252 248 250 253 257 262 267 270 275 280 286 292 299 305 311 315 316 311 301 292 290 289 289 288 283 274 260 246 237 232 232 231 231 233 236 237 237 236 234 227 216 204 200 204 209 215 219 223 227 230 233 234 235
3 4 4 4 4 3 1 358 353 347 340 332 325 321 319 321 326 330 327 319 312 307 301 297 304 312 313 310 309 307 299 283 265 256 254 255 258 261 264 267 271 275 280 287 292 297 300 303 303 298 291 286 284 286 285 283 280 276 267 253 239 226 221 221 225 226 228 229 229 229 228 229 228 224 218 215 215 216 218 220 221 223 224 225 225
3 3 4 4 4 3 2 360 357 353 347 339 331 325 321 320 323 328 328 322 314 306 299 294 298 305 308 306 304 302 299 293 283 271 263 260 259 261 263 267 270 274 278 282 286 288 289 288 283 275 273 275 276 278 279 278 275 271 266 259 247 233 221 217 217 219 221 222 222 220 216 212 214 215 216 218 220 221 223 224 225 226 227 227 227
2 3 3 4 4 4 3 1 359 356 352 346 338 329 323 319 319 324 328 325 316 305 295 290 293 300 306 306 303 299 296 295 292 286 280 273 268 265 264 266 269 272 274 277 278 279 278 273 266 259 258 260 262 263 266 268 266 263 257 252 247 239 229 220 216 215 217 219 219 217 214 211 209 208 209 208 208 209 211 214 217 220 221 220 220
1 2 3 4 4 4 3 2 1 359 356 351 345 337 328 321 317 319 324 325 319 306 293 286 288 295 300 304 304 300 295 292 291 290 289 286 282 276 271 267 266 267 269 271 271 269 265 260 255 253 253 252 250 249 251 252 253 252 249 245 241 238 234 227 220 215 214 215 216 216 217 218 221 223 224 223 221 220 221 221 223 224 224 222 220
359 1 2 3 4 4 4 3 2 0 358 354 350 344 336 327 320 316 317 321 319 308 293 283 283 288 294 298 301 301 297 292 289 288 288 288 288 285 281 275 269 264 263 263 262 260 257 254 254 254 254 250 246 242 240 240 240 240 239 239 237 236 233 230 226 221 218 215 214 213 213 215 218 220 221 221 220 220 220 220 221 222 223 223 223
358 359 0 1 3 3 4 3 2 1 359 357 353 348 341 333 325 317 312 312 312 307 295 284 280 282 287 291 294 296 296 292 288 286 286 287 287 285 282 279 275 269 264 261 258 256 255 254 254 254 253 250 246 243 240 238 237 236 236 237 238 237 235 233 231 230 228 226 224 223 221 220 220 220 220 220 220 222 223 223 223 224 225 225 225
357 358 359 0 1 2 3 3 3 2 0 359 356 352 346 338 329 320 311 306 304 301 295 285 278 277 280 283 285 288 290 290 288 284 282 282 282 282 280 279 277 273 268 265 263 262 260 257 254 252 250 249 248 247 246 244 241 240 240 241 242 241 240 237 235 234 232 231 231 232 232 232 231 231 230 230 230 231 231 232 232 232 232 232 233
356 357 357 359 360 1 2 3 3 3 1 360 358 355 350 343 334 324 314 305 299 296 291 285 278 274 274 277 279 281 282 284 285 283 280 277 276 276 276 275 274 271 268 264 262 260 260 260 258 255 253 253 253 252 251 248 246 245 245 243 242 241 240 238 237 236 235 234 235 235 236 237 237 237 237 237 237 237 237 238 238 239 239 239 239
355 355 356 357 358 360 1 1 2 3 2 1 359 357 354 349 342 333 321 310 300 294 289 284 279 274 272 272 274 277 279 279 280 280 279 277 274 272 271 271 270 269 266 264 262 259 258 257 257 256 255 254 254 253 251 248 247 246 245 243 241 239 238 238 238 239 238 238 238 238 238 238 238 238 238 238 238 238 239 239 240 240 240 240 240
353 354 354 355 357 358 359 0 1 2 2 1 0 358 356 353 348 340 331 319 307 297 290 285 280 276 273 271 271 271 273 275 276 277 277 276 274 271 269 267 267 266 264 262 261 261 259 257 256 253 252 251 250 250 249 247 246 245 246 245 244 243 242 242 241 241 240 241 241 241 241 241 240 239 239 239 239 240 241 241 242 242 242 242 242
Height
5322 5318 5315 5312 5308 5304 5301 5297 5294 5290 5287 5283 5280 5277 5274 5272 5270 5269 5269 5268 5269 5270 5270 5271 5272 5273 5274 5275 5277 5279 5281 5283 5285 5288 5291 5294 5298 5301 5304 5308 5312 5316 5319 5323 5328 5332 5336 5340 5344 5347 5350 5353 5358 5363 5367 5371 5375 5379 5383 5389 5396 5402 5408 5413 5420 5434 5444 5448 5456 5465 5470 5475 5479 5484 5491 5498 5502 5507 5513 5519 5524 5528 5532 5537 5542
5320 5316 5313 5309 5306 5302 5298 5295 5291 5287 5283 5279 5276 5272 5269 5267 5265 5265 5265 5264 5265 5266 5267 5268 5269 5270 5271 5273 5275 5277 5278 5280 5282 5285 5288 5291 5294 5297 5300 5303 5307 5310 5314 5317 5321 5324 5327 5331 5334 5337 5339 5343 5348 5351 5354 5358 5361 5365 5370 5374 5380 5387 5393 5398 5404 5416 5428 5435 5441 5449 5455 5460 5466 5473 5479 5485 5491 5495 5501 5507 5512 5517 5522 5528 5532
5318 5315 5311 5308 5304 5300 5296 5292 5289 5285 5281 5276 5272 5268 5265 5263 5261 5260 5260 5261 5262 5263 5264 5266 5267 5268 5269 5271 5273 5275 5277 5279 5281 5283 5286 5289 5292 5295 5298 5301 5304 5307 5310 5313 5316 5318 5321 5325 5327 5329 5332 5335 5339 5341 5344 5347 5350 5354 5358 5361 5366 5372 5378 5382 5389 5399 5410 5419 5425 5432 5439 5445 5453 5460 5466 5472 5478 5483 5488 5494 5500 5506 5512 5517 5522
5317 5313 5310 5306 5303 5299 5295 5291 5287 5283 5279 5275 5270 5266 5262 5259 5258 5257 5257 5258 5259 5260 5262 5263 5265 5266 5268 5269 5271 5273 5275 5277 5279 5282 5285 5288 5291 5294 5296 5299 5301 5304 5307 5309 5312 5314 5317 5320 5322 5323 5326 5328 5331 5334 5336 5339 5341 5344 5348 5350 5353 5359 5364 5368 5375 5382 5391 5401 5408 5415 5424 5431 5438 5445 5452 5458 5464 5470 5476 5482 5488 5495 5502 5506 5512
5316 5313 5309 5306 5302 5299 5295 5291 5287 5283 5278 5273 5269 5264 5260 5257 5256 5255 5255 5255 5257 5258 5260 5261 5263 5265 5266 5268 5269 5272 5274 5276 5278 5281 5284 5286 5289 5292 5294 5296 5299 5302 5304 5306 5309 5311 5313 5315 5317 5319 5321 5323 5325 5328 5330 5332 5334 5335 5338 5341 5343 5348 5351 5354 5361 5367 5374 5382 5391 5399 5408 5416 5422 5429 5437 5444 5451 5458 5464 5470 5476 5483 5490 5495 5501
5316 5313 5309 5306 5302 5299 5295 5291 5287 5283 5279 5274 5269 5265 5261 5258 5256 5254 5254 5254 5256 5257 5259 5260 5262 5263 5265 5267 5269 5271 5273 5275 5277 5280 5282 5285 5287 5289 5291 5294 5296 5299 5301 5303 5305 5307 5309 5311 5313 5314 5316 5318 5320 5322 5324 5325 5327 5329 5331 5333 5335 5338 5340 5343 5348 5354 5359 5366 5374 5382 5391 5400 5406 5414 5422 5430 5437 5444 5451 5457 5463 5470 5478 5484 5490
5316 5313 5309 5306 5303 5299 5295 5292 5288 5284 5280 5275 5271 5267 5263 5260 5257 5256 5255 5255 5256 5257 5258 5260 5261 5262 5264 5266 5268 5270 5272 5274 5276 5278 5280 5283 5285 5287 5289 5291 5293 5295 5297 5300 5301 5303 5305 5307 5308 5310 5312 5313 5315 5316 5318 5319 5321 5323 5325 5327 5328 5329 5330 5333 5338 5342 5346 5352 5359 5366 5375 5385 5391 5398 5407 5415 5421 5429 5437 5444 5451 5459 5466 5473 5480
5316 5313 5310 5307 5303 5299 5296 5292 5288 5285 5281 5278 5274 5270 5266 5263 5260 5258 5257 5257 5257 5258 5259 5260 5261 5262 5264 5265 5267 5269 5270 5272 5274 5276 5278 5280 5282 5284 5286 5287 5290 5292 5294 5296 5298 5299 5301 5302 5304 5306 5307 5309 5310 5311 5313 5314 5315 5317 5319 5320 5321 5322 5324 5327 5330 5333 5336 5340 5346 5353 5360 5369 5377 5383 5391 5399 5405 5415 5425 5434 5441 5448 5454 5461 5467
5317 5314 5311 5307 5304 5300 5297 5293 5290 5286 5283 5280 5276 5273 5270 5266 5264 5262 5260 5260 5259 5259 5259 5260 5261 5262 5263 5265 5266 5267 5269 5270 5272 5274 5275 5277 5279 5281 5283 5284 5287 5289 5290 5292 5294 5295 5296 5298 5299 5301 5302 5304 5305 5306 5307 5309 5310 5312 5314 5314 5315 5317 5319 5321 5323 5325 5327 5330 5336 5341 5346 5354 5363 5371 5378 5385 5394 5405 5414 5420 5427 5435 5441 5447 5454
5318 5315 5312 5309 5305 5302 5299 5295 5292 5288 5285 5282 5279 5276 5273 5270 5267 5265 5263 5262 5261 5261 5261 5261 5262 5263 5263 5264 5265 5266 5267 5269 5270 5271 5273 5274 5276 5278 5280 5281 5283 5285 5287 5288 5290 5291 5292 5294 5295 5296 5297 5298 5300 5301 5302 5304 5305 5307 5308 5309 5311 5312 5314 5316 5317 5318 5320 5323 5327 5330 5334 5341 5351 5358 5366 5375 5384 5392 5398 5404 5413 5421 5428 5433 5440
5321 5318 5314 5311 5307 5304 5301 5297 5293 5290 5287 5284 5281 5278 5275 5273 5270 5268 5266 5265 5264 5263 5263 5263 5263 5263 5264 5264 5265 5265 5266 5267 5268 5269 5270 5272 5273 5275 5276 5278 5279 5281 5283 5284 5286 5287 5288 5289 5290 5291 5293 5294 5295 5296 5297 5299 5300 5302 5303 5304 5306 5307 5309 5310 5311 5312 5314 5316 5319 5321 5324 5330 5338 5345 5353 5362 5370 5376 5384 5392 5400 5408 5414 5420 5429
5324 5320 5317 5313 5310 5306 5303 5299 5296 5293 5290 5287 5284 5280 5278 5275 5273 5271 5269 5268 5267 5266 5265 5265 5264 5264 5264 5264 5264 5265 5265 5265 5266 5267 5268 5269 5271 5272 5273 5275 5276 5278 5279 5280 5282 5283 5284 5285 5286 5287 5288 5289 5290 5291 5293 5294 5295 5297 5298 5300 5301 5302 5304 5305 5306 5307 5309 5311 5313 5315 5318 5322 5328 5334 5341 5349 5357 5363 5371 5379 5387 5395 5402 5409 5418
5326 5323 5319 5316 5312 5309 5305 5302 5298 5295 5292 5289 5286 5283 5280 5278 5275 5273 5271 5270 5268 5267 5266 5266 5265 5265 5264 5264 5264 5264 5264 5264 5265 5265 5266 5267 5268 5269 5271 5272 5273 5275 5276 5277 5278 5279 5280 5281 5282 5283 5284 5284 5285 5287 5288 5289 5290 5292 5293 5295 5296 5298 5299 5301 5302 5303 5305 5306 5308 5311 5313 5315 5320 5326 5331 5338 5344 5351 5358 5366 5375 5383 5390 5399 5408
5328 5325 5321 5318 5314 5311 5308 5304 5301 5298 5295 5292 5289 5286 5283 5280 5278 5275 5273 5271 5270 5268 5267 5266 5265 5265 5264 5263 5263 5263 5263 5263 5263 5263 5264 5265 5266 5267 5268 5269 5270 5271 5272 5273 5274 5275 5276 5276 5277 5279 5279 5280 5281 5282 5283 5285 5286 5287 5289 5290 5292 5293 5295 5296 5297 5298 5300 5302 5304 5306 5308 5309 5313 5318 5322 5327 5331 5338 5345 5353 5362 5370 5379 5389 5397
5330 5327 5323 5320 5316 5313 5310 5307 5304 5301 5297 5294 5291 5289 5286 5283 5280 5278 5276 5273 5271 5270 5268 5267 5266 5264 5264 5263 5262 5262 5261 5262 5262 5262 5262 5263 5263 5264 5265 5266 5267 5268 5268 5269 5270 5271 5272 5272 5273 5274 5275 5276 5277 5278 5279 5280 5281 5283 5284 5285 5287 5288 5290 5291 5292 5294 5296 5297 5299 5301 5303 5304 5307 5310 5314 5317 5321 5327 5334 5341 5349 5357 5366 5374 5380
5332 5328 5325 5321 5318 5315 5312 5309 5306 5303 5300 5296 5293 5291 5288 5285 5283 5280 5278 5276 5273 5271 5269 5268 5266 5265 5263 5262 5261 5261 5260 5260 5260 5260 5260 5260 5261 5261 5262 5262 5263 5264 5265 5265 5266 5267 5268 5268 5269 5270 5271 5272 5273 5274 5275 5276 5277 5278 5279 5281 5283 5284 5286 5287 5288 5289 5291 5293 5295 5297 5298 5300 5302 5304 5307 5310 5314 5319 5325 5330 5337 5343 5351 5360 5367
5333 5330 5326 5323 5320 5317 5313 5310 5307 5304 5301 5298 5295 5293 5290 5287 5285 5282 5280 5278 5275 5273 5271 5269 5267 5265 5264 5262 5261 5260 5259 5259 5258 5258 5258 5258 5258 5258 5259 5259 5260 5260 5261 5262 5262 5263 5264 5264 5265 5265 5266 5267 5268 5269 5270 5271 5272 5274 5275 5277 5279 5280 5282 5283 5284 5286 5287 5289 5291 5293 5294 5296 5298 5300 5302 5305 5308 5312 5316 5322 5328 5334 5341 5349 5357
5334 5331 5328 5324 5321 5318 5315 5312 5309 5306 5303 5300 5297 5294 5292 5289 5286 5284 5281 5279 5277 5274 5272 5270 5268 5266 5264 5263 5261 5260 5259 5258 5257 5256 5256 5256 5256 5256 5256 5256 5256 5257 5257 5258 5259 5259 5260 5260 5261 5261 5262 5263 5264 5265 5266 5267 5268 5270 5272 5274 5275 5277 5279 5279 5280 5282 5284 5285 5287 5289 5290 5292 5294 5296 5298 5300 5303 5306 5310 5315 5320 5325 5330 5338 5346
5334 5331 5328 5325 5322 5320 5316 5314 5311 5308 5305 5302 5299 5296 5293 5290 5288 5285 5283 5280 5278 5275 5272 5270 5268 5266 5264 5263 5261 5260 5259 5258 5257 5256 5255 5254 5254 5254 5253 5253 5253 5254 5254 5254 5255 5255 5256 5256 5257 5258 5258 5259 5259 5261 5262 5263 5265 5267 5269 5270 5271 5274 5276 5276 5277 5278 5280 5281 5283 5284 5286 5288 5290 5292 5293 5295 5298 5301 5305 5309 5312 5315 5321 5328 5335
5334 5331 5329 5326 5323 5320 5317 5315 5312 5309 5306 5303 5301 5298 5295 5292 5289 5287 5284 5281 5278 5276 5273 5271 5268 5266 5264 5262 5261 5260 5259 5258 5257 5256 5255 5254 5253 5253 5252 5252 5251 5251 5251 5251 5251 5252 5252 5252 5253 5254 5254 5255 5256 5257 5258 5259 5261 5264 5265 5267 5269 5271 5272 5272 5272 5274 5275 5277 5278 5280 5281 5283 5285 5287 5289 5291 5294 5297 5300 5302 5305 5309 5315 5319 5324
5334 5331 5328 5326 5323 5320 5318 5315 5312 5310 5307 5304 5301 5299 5296 5293 5290 5288 5285 5282 5279 5277 5274 5272 5269 5267 5264 5263 5261 5260 5259 5258 5257 5256 5255 5254 5253 5253 5252 5251 5250 5250 5250 5249 5249 5249 5249 5249 5250 5250 5251 5251 5252 5254 5255 5256 5258 5260 5262 5264 5266 5267 5267 5267 5268 5269 5271 5273 5274 5276 5277 5279 5281 5283 5285 5287 5290 5292 5294 5296 5300 5304 5307 5311 5316
5333 5330 5328 5325 5322 5320 5317 5315 5312 5309 5307 5304 5302 5299 5296 5293 5291 5288 5285 5283 5280 5278 5275 5273 5270 5268 5265 5263 5262 5260 5259 5258 5257 5256 5255 5254 5253 5252 5251 5251 5250 5249 5249 5248 5248 5247 5247 5247 5247 5247 5248 5248 5249 5250 5251 5253 5254 5256 5258 5260 5261 5262 5262 5263 5264 5265 5267 5269 5271 5272 5274 5276 5278 5279 5281 5283 5285 5287 5288 5290 5293 5296 5299 5303 5308
5332 5329 5326 5324 5322 5319 5316 5314 5311 5309 5306 5304 5301 5299 5296 5293 5291 5288 5286 5283 5280 5278 5276 5273 5271 5269 5266 5264 5262 5261 5260 5258 5257 5256 5254 5253 5252 5252 5251 5250 5249 5248 5247 5247 5246 5246 5246 5246 5245 5245 5245 5246 5246 5247 5248 5249 5250 5252 5254 5256 5257 5258 5258 5259 5260 5261 5263 5265 5267 5269 5271 5273 5275 5276 5277 5279 5281 5282 5283 5285 5287 5289 5292 5296 5300
5331 5328 5325 5323 5320 5318 5315 5313 5310 5308 5306 5303 5301 5298 5296 5293 5290 5288 5285 5283 5281 5278 5276 5273 5271 5269 5266 5264 5262 5261 5259 5258 5257 5255 5254 5253 5251 5250 5249 5248 5248 5247 5246 5245 5244 5244 5244 5243 5243 5243 5243 5243 5244 5244 5244 5245 5246 5248 5249 5251 5252 5253 5253 5255 5256 5258 5259 5261 5263 5266 5268 5270 5271 5272 5273 5275 5276 5278 5279 5280 5282 5284 5286 5289 5293
5328 5326 5323 5320 5318 5316 5314 5311 5309 5307 5304 5302 5300 5297 5295 5292 5290 5287 5284 5282 5280 5278 5275 5273 5270 5268 5266 5264 5262 5260 5259 5257 5256 5254 5253 5251 5250 5249 5248 5247 5246 5245 5244 5243 5242 5242 5241 5241 5241 5241 5241 5241 5241 5241 5242 5242 5243 5244 5245 5246 5247 5248 5249 5251 5253 5254 5255 5258 5260 5262 5264 5265 5266 5268 5269 5270 5272 5273 5275 5276 5277 5279 5281 5283 5286
5326 5323 5321 5318 5315 5313 5311 5309 5307 5305 5302 5300 5298 5296 5294 5291 5289 5286 5284 5281 5279 5276 5274 5272 5269 5267 5265 5263 5262 5260 5258 5256 5255 5253 5252 5250 5249 5248 5247 5245 5244 5243 5242 5241 5240 5239 5239 5239 5238 5238 5238 5238 5238 5238 5239 5239 5240 5241 5241 5242 5243 5243 5245 5246 5249 5250 5252 5254 5256 5258 5260 5261 5262 5263 5265 5266 5267 5269 5271 5272 5274 5275 5277 5278 5281
5325 5322 5318 5316 5313 5310 5308 5305 5304 5302 5300 5298 5296 5294 5292 5290 5287 5285 5283 5280 5278 5275 5273 5270 5268 5266 5264 5262 5260 5259 5257 5255 5254 5252 5251 5249 5248 5247 5246 5244 5243 5242 5240 5239 5238 5237 5237 5236 5236 5236 5236 5235 5235 5235 5236 5236 5237 5237 5238 5238 5239 5240 5241 5242 5244 5246 5248 5250 5252 5253 5255 5256 5257 5259 5260 5262 5263 5265 5267 5268 5270 5271 5273 5275 5276
5323 5320 5317 5314 5311 5308 5305 5302 5300 5298 5297 5295 5293 5291 5289 5287 5285 5283 5281 5279 5276 5274 5271 5269 5267 5265 5262 5260 5259 5257 5256 5254 5253 5251 5250 5248 5247 5246 5244 5243 5241 5240 5239 5237 5236 5235 5234 5233 5233 5233 5233 5233 5232 5232 5232 5233 5233 5234 5234 5235 5235 5236 5237 5238 5240 5241 5243 5245 5246 5248 5250 5251 5253 5254 5256 5258 5259 5261 5262 5264 5265 5267 5269 5271 5272
5320 5317 5314 5311 5308 5306 5303 5300 5297 5294 5292 5291 5289 5288 5286 5284 5282 5280 5278 5276 5274 5272 5270 5267 5265 5263 5260 5258 5257 5255 5254 5252 5251 5250 5248 5247 5246 5244 5243 5241 5240 5238 5237 5235 5234 5233 5231 5230 5230 5230 5230 5230 5230 5230 5230 5230 5230 5230 5230 5230 5231 5232 5233 5235 5236 5237 5239 5240 5242 5244 5245 5246 5248 5249 5251 5253 5255 5256 5258 5259 5261 5263 5265 5266 5268
5318 5315 5312 5309 5306 5303 5300 5297 5294 5291 5289 5286 5284 5282 5281 5280 5279 5277 5275 5273 5271 5269 5267 5265 5262 5260 5258 5256 5255 5253 5251 5250 5249 5248 5247 5245 5244 5243 5242 5240 5238 5237 5235 5234 5232 5231 5229 5228 5227 5227 5227 5227 5227 5227 5227 5227 5226 5226 5226 5226 5227 5228 5229 5231 5233 5234 5235 5236 5238 5239 5240 5241 5243 5245 5247 5248 5250 5251 5253 5254 5256 5258 5260 5262 5264
5315 5312 5309 5306 5303 5300 5297 5295 5292 5289 5286 5283 5280 5278 5276 5275 5274 5273 5271 5269 5267 5265 5263 5261 5259 5257 5256 5254 5252 5251 5250 5248 5247 5246 5245 5244 5243 5242 5240 5239 5237 5236 5234 5232 5231 5229 5228 5226 5226 5225 5225 5225 5224 5224 5224 5224 5224 5223 5223 5223 5223 5224 5226 5227 5229 5230 5232 5233 5235 5235 5236 5238 5240 5241 5242 5243 5244 5246 5248 5249 5251 5253 5255 5257 5260
5313 5310 5307 5304 5301 5298 5295 5292 5289 5286 5283 5281 5278 5275 5272 5270 5268 5267 5266 5265 5264 5261 5259 5257 5256 5254 5253 5252 5250 5249 5247 5246 5245 5244 5243 5242 5241 5240 5239 5237 5236 5234 5233 5231 5230 5228 5227 5226 5225 5224 5223 5223 5222 5222 5222 5221 5221 5221 5221 5220 5220 5221 5222 5224 5226 5227 5229 5230 5231 5232 5233 5235 5236 5237 5238 5239 5240 5241 5243 5244 5246 5248 5250 5252 5255
5311 5307 5304 5301 5298 5295 5292 5290 5287 5284 5281 5278 5275 5273 5270 5267 5264 5262 5261 5260 5260 5258 5257 5255 5253 5252 5250 5249 5248 5246 5245 5244 5243 5242 5241 5240 5239 5238 5237 5236 5234 5233 5232 5230 5229 5227 5226 5225 5224 5223 5222 5221 5220 5220 5219 5219 5219 5219 5219 5219 5219 5219 5220 5221 5223 5224 5226 5227 5228 5229 5230 5231 5232 5233 5234 5235 5236 5237 5238 5239 5241 5243 5245 5247 5249
5310 5305 5302 5298 5295 5293 5290 5287 5284 5282 5279 5276 5273 5270 5268 5266 5263 5260 5258 5255 5254 5254 5253 5252 5250 5249 5248 5246 5245 5244 5242 5241 5241 5240 5239 5239 5238 5237 5236 5234 5233 5232 5230 5229 5228 5227 5225 5224 5223 5222 5221 5220 5219 5218 5218 5217 5217 5217 5217 5217 5217 5218 5218 5219 5220 5221 5222 5224 5225 5226 5226 5227 5228 5229 5230 5231 5232 5233 5233 5234 5235 5238 5240 5242 5244
5309 5304 5300 5296 5293 5290 5287 5284 5282 5279 5277 5274 5271 5268 5266 5263 5261 5259 5257 5254 5252 5250 5249 5248 5247 5246 5245 5244 5242 5241 5240 5239 5238 5238 5238 5237 5236 5235 5234 5233 5232 5231 5229 5228 5227 5226 5225 5224 5222 5221 5220 5219 5219 5218 5217 5216 5216 5215 5215 5215 5215 5216 5216 5217 5218 5218 5219 5220 5221 5222 5223 5223 5224 5225 5226 5227 5228 5229 5230 5230 5231 5232 5234 5237 5239
5306 5302 5297 5293 5290 5287 5284 5281 5279 5276 5274 5271 5269 5266 5263 5261 5258 5256 5254 5252 5251 5249 5247 5246 5245 5244 5242 5241 5239 5238 5237 5236 5236 5236 5236 5235 5235 5234 5233 5232 5231 5230 5228 5227 5226 5225 5224 5223 5222 5221 5220 5219 5218 5217 5216 5216 5215 5214 5214 5214 5214 5214 5214 5215 5215 5216 5216 5217 5217 5218 5218 5219 5220 5221 5222 5223 5224 5225 5226 5227 5227 5228 5230 5231 5233
5307 5301 5296 5291 5287 5283 5280 5278 5275 5273 5270 5268 5266 5264 5261 5258 5256 5253 5251 5250 5248 5246 5245 5244 5243 5242 5240 5239 5237 5236 5235 5234 5234 5234 5234 5234 5233 5232 5231 5231 5230 5229 5227 5226 5225 5224 5223 5222 5221 5220 5219 5218 5217 5216 5216 5215 5214 5214 5213 5213 5213 5212 5212 5212 5213 5213 5213 5213 5213 5214 5214 5215 5215 5216 5217 5218 5220 5221 5222 5223 5224 5225 5226 5227 5229
5308 5302 5296 5291 5286 5282 5278 5274 5271 5269 5267 5265 5263 5261 5258 5256 5253 5251 5249 5247 5245 5244 5243 5241 5240 5239 5238 5236 5235 5234 5233 5232 5232 5232 5232 5232 5231 5231 5230 5229 5228 5227 5226 5225 5224 5223 5222 5220 5219 5219 5218 5217 5216 5216 5215 5214 5213 5213 5212 5212 5212 5211 5211 5211 5211 5211 5211 5211 5210 5210 5210 5211 5211 5212 5213 5214 5216 5217 5218 5220 5221 5222 5223 5224 5226
5307 5301 5296 5291 5286 5281 5276 5272 5268 5265 5263 5261 5259 5257 5255 5253 5250 5248 5246 5244 5242 5241 5240 5239 5238 5237 5236 5234 5233 5232 5231 5231 5231 5231 5230 5230 5229 5229 5228 5228 5227 5226 5225 5224 5222 5221 5220 5219 5218 5217 5216 5215 5215 5214 5214 5213 5213 5212 5211 5211 5210 5210 5210 5210 5209 5209 5209 5209 5209 5209 5208 5208 5208 5209 5210 5211 5212 5214 5215 5216 5218 5219 5220 5222 5223
5307 5301 5296 5290 5285 5280 5275 5271 5267 5263 5260 5258 5255 5253 5251 5250 5247 5245 5243 5242 5240 5239 5238 5237 5236 5235 5234 5233 5232 5231 5230 5229 5229 5229 5229 5228 5227 5227 5226 5226 5225 5224 5223 5222 5221 5220 5219 5218 5217 5216 5215 5214 5213 5213 5212 5212 5211 5211 5210 5210 5209 5209 5209 5209 5208 5208 5208 5208 5208 5208 5208 5207 5207 5207 5208 5208 5210 5211 5212 5213 5214 5216 5217 5218 5219
5306 5301 5295 5290 5284 5279 5274 5270 5265 5262 5258 5255 5253 5250 5249 5247 5245 5243 5241 5239 5238 5236 5235 5234 5233 5232 5232 5231 5230 5229 5228 5228 5227 5227 5226 5226 5225 5225 5224 5223 5223 5222 5221 5220 5219 5218 5217 5216 5215 5214 5213 5212 5212 5211 5211 5210 5210 5210 5209 5209 5208 5208 5208 5208 5208 5207 5207 5207 5207 5207 5207 5207 5207 5207 5207 5208 5208 5209 5210 5211 5212 5213 5214 5215 5216
5306 5300 5294 5288 5283 5278 5273 5269 5264 5260 5257 5253 5250 5248 5246 5244 5242 5241 5239 5237 5236 5235 5233 5232 5231 5230 5230 5229 5228 5227 5227 5226 5225 5225 5224 5224 5223 5222 5222 5221 5220 5220 5219 5218 5217 5216 5215 5214 5213 5213 5212 5211 5210 5210 5210 5209 5209 5208 5208 5208 5208 5207 5207 5207 5207 5207 5207 5207 5207 5206 5206 5206 5206 5206 5207 5207 5208 5208 5209 5210 5210 5211 5212 5213 5214
5305 5300 5294 5288 5283 5278 5273 5268 5263 5259 5255 5252 5249 5246 5243 5241 5240 5238 5236 5235 5234 5233 5232 5231 5230 5229 5228 5227 5227 5226 5225 5224 5223 5223 5222 5221 5220 5220 5219 5218 5218 5217 5217 5216 5215 5214 5214 5213 5212 5211 5210 5210 5209 5209 5208 5208 5208 5207 5207 5207 5207 5206 5206 5206 5206 5206 5206 5206 5206 5206 5206 5206 5206 5206 5206 5207 5207 5207 5208 5209 5209 5210 5211 5211 5212
5305 5300 5294 5288 5283 5277 5272 5267 5263 5258 5254 5250 5247 5244 5242 5239 5238 5236 5234 5233 5231 5230 5230 5229 5228 5227 5226 5225 5224 5224 5223 5222 5221 5221 5220 5219 5218 5217 5216 5216 5215 5214 5214 5213 5213 5212 5212 5211 5210 5210 5209 5209 5208 5208 5207 5207 5207 5206 5206 5206 5206 5205 5205 5205 5205 5205 5205 5205 5206 5206 5206 5206 5206 5206 5206 5207 5207 5207 5208 5208 5209 5209 5210 5210 5211
5304 5298 5293 5287 5282 5277 5272 5267 5262 5257 5253 5249 5246 5243 5240 5237 5235 5234 5232 5230 5229 5228 5227 5227 5226 5225 5224 5223 5222 5221 5220 5220 5219 5218 5218 5217 5216 5215 5214 5213 5212 5212 5211 5211 5210 5210 5209 5209 5209 5208 5208 5207 5207 5206 5206 5206 5206 5205 5205 5205 5204 5204 5204 5204 5204 5204 5204 5205 5205 5205 5205 5205 5206 5206 5206 5206 5206 5207 5207 5208 5208 5209 5209 5210 5210
5303 5297 5292 5286 5281 5276 5271 5266 5261 5257 5252 5248 5244 5241 5238 5235 5233 5231 5230 5228 5227 5226 5225 5224 5224 5223 5222 5221 5220 5219 5218 5217 5216 5216 5215 5215 5214 5213 5212 5211 5210 5209 5209 5208 5208 5208 5207 5207 5207 5206 5206 5206 5205 5205 5205 5204 5204 5204 5204 5204 5203 5203 5203 5203 5203 5203 5203 5204 5204 5204 5204 5204 5205 5205 5205 5205 5206 5206 5206 5207 5207 5208 5208 5209 5210
5302 5296 5291 5285 5280 5275 5270 5266 5261 5256 5252 5247 5243 5239 5236 5233 5231 5229 5227 5226 5224 5223 5222 5222 5221 5220 5219 5218 5217 5216 5215 5214 5214 5213 5212 5212 5211 5211 5210 5209 5208 5208 5207 5206 5206 5205 5205 5205 5205 5204 5204 5204 5204 5203 5203 5203 5203 5202 5202 5202 5202 5202 5202 5202 5202 5202 5202 5202 5203 5203 5203 5203 5204 5204 5204 5204 5205 5205 5206 5206 5206 5207 5207 5208 5209
5300 5295 5290 5284 5279 5274 5270 5265 5260 5256 5251 5246 5242 5238 5235 5232 5229 5227 5225 5223 5222 5221 5219 5219 5218 5217 5216 5215 5214 5213 5213 5212 5211 5210 5209 5209 5208 5208 5207 5207 5206 5206 5205 5205 5204 5203 5203 5203 5202 5202 5202 5202 5202 5202 5201 5201 5201 5201 5200 5200 5200 5200 5200 5201 5201 5201 5201 5201 5201 5202 5202 5202 5202 5203 5203 5203 5204 5204 5204 5205 5205 5206 5206 5207 5208
5299 5294 5289 5283 5278 5273 5268 5264 5259 5255 5250 5246 5241 5237 5233 5230 5227 5225 5222 5220 5219 5217 5216 5215 5215 5214 5213 5212 5211 5211 5210 5209 5208 5207 5206 5205 5205 5205 5204 5204 5204 5203 5203 5202 5202 5201 5201 5201 5200 5200 5200 5200 5199 5199 5199 5199 5199 5199 5198 5198 5198 5199 5199 5199 5199 5199 5199 5200 5200 5200 5200 5201 5201 5201 5201 5202 5202 5203 5203 5203 5204 5204 5205 5205 5206
5297 5292 5287 5282 5277 5272 5268 5263 5258 5254 5250 5245 5241 5236 5232 5229 5226 5223 5220 5218 5216 5214 5213 5212 5211 5210 5209 5209 5208 5207 5206 5205 5205 5204 5203 5202 5201 5201 5200 5200 5200 5200 5200 5199 5199 5199 5198 5198 5198 5197 5197 5197 5197 5197 5197 5197 5197 5197 5197 5197 5197 5197 5197 5197 5197 5197 5197 5197 5198 5198 5198 5199 5199 5199 5199 5200 5200 5200 5201 5201 5202 5202 5203 5203 5204
5295 5291 5286 5281 5276 5271 5266 5262 5257 5253 5249 5244 5240 5236 5231 5227 5223 5220 5218 5215 5213 5211 5210 5208 5207 5206 5205 5205 5204 5203 5202 5202 5201 5200 5199 5199 5198 5197 5197 5196 5196 5196 5196 5196 5196 5196 5195 5195 5195 5195 5194 5194 5194 5194 5194 5194 5194 5194 5194 5194 5194 5194 5194 5194 5194 5195 5195 5195 5195 5196 5196 5196 5196 5197 5197 5197 5198 5198 5199 5199 5199 5200 5201 5201 5202